Location: Rounton
(54.4000°N, 1.3500°W)
Time: 14:39:55
(UTC+00:00)

Transit 2A Rocket - Pass Details

Date: 02 December 2021
Orbit: 584 x 918 km, 66.7° (Epoch: 21 January)

Event Time Altitude Azimuth Distance (km) Brightness Sun altitude
Rises 07:47:01 0° 188° (S) 3,336 8.7 -2.9°
Reaches altitude 10° 07:49:32 10° 180° (S) 2,455 8.2 -2.6°
Maximum altitude 07:54:43 37° 115° (ESE) 1,352 7.2 -2.0°
Drops below altitude 10° 08:00:13 10° 51° (NE) 2,603 7.9 -1.4°
Sets 08:02:57 0° 44° (NE) 3,563 8.5 -1.1°
